This demonstration page uses our WeatherBlox Daily Observations layout. Learn more.

Left ArrowRight Arrow

Hourly Observations for September 20, 2019

Temp ( °F °C ) Dew Point ( °F °C ) Humidity (%) Winds ( mph kmh ) Pressure ( in mb ) Visibility ( mi km ) Precip ( " mm )
12:59 am 00:59 Partly Cloudy 59 15 53 11.7 81 81 Calm 30.30 1026 10 16 0.00 0.00
1:59 am 01:59 Partly Cloudy 58 14.4 53 11.7 84 84 Calm 30.29 1026 10 16 0.00 0.00
2:59 am 02:59 Partly Cloudy 54 12.2 51 10.6 90 90 Calm 30.29 1026 10 16 0.00 0.00
3:59 am 03:59 Mostly Clear 54 12.2 51 10.6 90 90 Calm 30.29 1026 10 16 0.00 0.00
4:59 am 04:59 Partly Cloudy 55 12.8 52 11.1 90 90 Calm 30.30 1026 10 16 0.00 0.00
5:59 am 05:59 Mostly Clear 54 12.2 51 10.6 90 90 Calm 30.31 1027 10 16 0.00 0.00
6:59 am 06:59 Partly Cloudy 53 11.7 51 10.6 93 93 Calm 30.32 1027 10 16 0.00 0.00
7:59 am 07:59 Partly Cloudy 59 15 56 13.3 90 90 Calm 30.33 1027 10 16 0.00 0.00
8:59 am 08:59 Partly Cloudy 67 19.4 53 11.7 61 61 NNW 6 9 30.34 1028 10 16 0.00 0.00
9:59 am 09:59 Mostly Sunny 69 20.6 53 11.7 57 57 NW 5 7 30.35 1028 10 16 0.00 0.00
10:59 am 10:59 Mostly Sunny 70 21.1 54 12.2 57 57 N 5 7 30.35 1028 10 16 0.00 0.00
11:59 am 11:59 Mostly Sunny 71 21.7 54 12.2 55 55 NE 5 7 30.33 1027 10 16 0.00 0.00
12:59 pm 12:59 Sunny 72 22.2 54 12.2 53 53 NNE 7 11 30.32 1027 10 16 0.00 0.00
1:59 pm 13:59 Partly Cloudy 72 22.2 55 12.8 55 55 VRB 7 11 30.29 1026 10 16 0.00 0.00
2:59 pm 14:59 Partly Cloudy 73 22.8 55 12.8 53 53 NNW 3 6 30.27 1025 10 16 0.00 0.00
3:59 pm 15:59 Sunny 73 22.8 56 13.3 55 55 E 7 11 30.26 1025 10 16 0.00 0.00
4:59 pm 16:59 Mostly Cloudy 72 22.2 55 12.8 55 55 ESE 7 11 30.26 1025 10 16 0.00 0.00
5:59 pm 17:59 Mostly Sunny 71 21.7 57 13.9 61 61 ENE 5 7 30.26 1025 10 16 0.00 0.00
6:59 pm 18:59 Partly Cloudy 67 19.4 58 14.4 73 73 ESE 6 9 30.26 1025 10 16 0.00 0.00
7:59 pm 19:59 Partly Cloudy 65 18.3 57 13.9 76 76 SSE 5 7 30.28 1025 10 16 0.00 0.00
8:59 pm 20:59 Mostly Clear 64 17.8 57 13.9 78 78 SSE 5 7 30.29 1026 10 16 0.00 0.00
9:59 pm 21:59 Mostly Clear 63 17.2 57 13.9 81 81 S 6 9 30.29 1026 10 16 0.00 0.00
10:59 pm 22:59 Mostly Clear 63 17.2 58 14.4 84 84 SSE 6 9 30.28 1026 10 16 0.00 0.00
11:59 pm 23:59 Clear 63 17.2 58 14.4 84 84 S 7 11 30.28 1025 10 16 0.00 0.00

Powered by AerisWeather